Location: Aciu?a
(46.2833°N, 22.4500°E)
Time: 02:49:52
(UTC+00:00)

NOSS 2-3 (E) - Pass Details

Date: 25 October 2021
Orbit: 540 x 1670 km, 63.4° (Epoch: 28 November)

Event Time Altitude Azimuth Distance (km) Brightness Sun altitude
Rises 16:38:12 0° 221° (SW) 2,689 7.6 -13.0°
Reaches altitude 10° 16:40:16 10° 222° (SW) 1,825 6.7 -13.4°
Maximum altitude 16:44:16 80° 310° (NW) 612 3.6 -14.0°
Enters shadow 16:48:55 10° 38° (NE) 2,125 5.9 -14.8°
